SAT-53603

Operational
NORAD ID: 53603 Owner: SpaceX

SAT-53603について

説明を読み込み中...

リアルタイム位置

3D地球を読み込み中...

次回通過

高度履歴

Altitude vs Time

uPlot chart will show altitude changes over time

軌道要素

1 25544U 98067A 24001.50000000 .00002182 00000-0 42575-4 0 9990
2 25544 51.6461 339.7939 0001397 83.2776 276.8615 15.48919103123456
Epoch: Jan 1, 2024 • Age: N/A

現在のステータス

Position data unavailable

大規模コンステレーション

Loading constellations...